Location: Ravensburg
(47.7866°N, 9.6124°E)
Time: 09:57:05
(UTC+02:00)

YUBILEINY - Pass Details

Date: 21 March 2026
Orbit: 1477 x 1509 km, 82.5° (Epoch: 17 April)

Event Time Altitude Azimuth Distance (km) Brightness Sun altitude
Rises 02:50:16 0° 350° (N) 4,619 ? -33.1°
Reaches altitude 10° 02:53:10 10° 352° (N) 3,632 ? -32.7°
Maximum altitude 03:01:55 79° 79° (E) 1,508 ? -31.7°
Enters shadow 03:06:12 35° 161° (SSE) 2,215 ? -31.1°
